Location: Bosmont
(49.7318°N, 3.8587°E)
Time: 17:50:50
(UTC+00:00)

Cosmos 1943 Rocket - Pass Details

Date: 08 February 2023
Orbit: 811 x 844 km, 71.0° (Epoch: 26 March)

Event Time Altitude Azimuth Distance (km) Brightness Sun altitude
Rises 20:42:46 0° 326° (NW) 3,413 6.1 -37.3°
Reaches altitude 10° 20:45:21 10° 319° (NW) 2,473 5.2 -37.7°
Enters shadow 20:48:32 30° 296° (WNW) 1,488 3.9 -38.1°
